Theta_e
308 308 307 307 307 307 308 308 308 307 305 300 298 298 294 292 291 302 303 303 298 289 281 285 285 283 287 289 290 290 290 288 290 290 290 290 290 287 288 288 286 286 287 286 284 287 286 289 287 290 290 291 294 295 295 297 294 292 284 289 290 297 281 280 282 284 285 288 289 290 290 289 286 287 287 286 283 283 279 278 277 276 275 274 270 269 275
308 307 307 307 307 308 308 308 308 307 306 301 298 293 291 291 291 296 302 301 297 290 284 284 281 285 288 287 289 290 290 289 287 287 287 288 288 287 286 288 289 288 290 288 283 288 283 291 289 287 292 289 295 293 293 296 291 290 288 287 292 282 282 283 279 278 280 282 284 284 288 288 284 284 285 287 287 286 285 284 280 275 276 275 272 270 273
308 307 307 307 307 307 308 308 308 307 306 303 295 294 294 292 293 293 297 301 298 289 284 284 277 284 285 284 285 285 287 290 290 290 288 290 287 287 286 289 289 288 289 288 289 291 286 283 292 292 292 290 294 293 294 296 293 295 299 299 296 288 283 283 277 275 273 273 272 276 280 282 284 285 286 287 287 286 285 279 281 276 280 279 273 273 283
307 307 307 307 307 307 308 308 308 307 306 304 296 294 294 291 286 289 290 293 294 293 292 289 285 283 284 281 285 284 283 286 289 290 289 290 290 288 289 289 290 287 286 283 284 286 292 286 283 288 287 291 294 294 294 295 294 299 302 300 294 284 286 285 284 282 280 282 284 285 286 285 282 284 286 286 288 289 288 286 282 278 282 281 282 283 284
308 307 307 307 307 307 308 308 307 307 305 304 298 296 294 290 288 285 284 290 289 288 288 289 288 285 285 281 285 283 283 284 287 290 287 290 290 290 289 288 286 285 285 282 281 283 285 287 287 287 289 291 293 296 296 296 299 301 299 299 290 285 284 286 286 285 286 288 287 289 287 284 285 285 285 286 286 286 285 282 280 286 282 277 284 285 283
307 307 307 307 307 308 308 308 308 306 304 303 298 293 291 286 287 290 291 286 283 283 285 290 288 288 288 284 285 283 282 282 281 286 290 289 290 288 287 288 287 287 287 284 280 279 281 283 282 285 288 290 292 292 297 295 299 299 295 297 289 284 282 285 286 285 288 289 289 290 288 286 286 286 285 285 286 286 283 284 286 286 281 279 284 285 283
307 307 307 307 307 308 308 308 307 306 304 302 294 290 291 291 289 290 293 287 285 287 290 291 289 285 286 283 285 282 282 283 285 284 285 285 287 288 281 284 287 287 287 285 281 282 279 280 284 286 284 286 285 285 291 298 298 295 292 291 291 286 284 286 287 286 287 288 289 290 288 286 286 286 286 287 287 286 286 285 286 286 284 286 286 286 285
307 307 307 307 308 308 309 308 307 305 304 300 296 294 290 288 287 286 289 289 290 291 289 288 285 284 289 282 285 284 283 283 285 286 285 280 284 289 287 286 287 287 287 285 285 287 289 286 283 288 289 287 286 287 288 289 294 293 290 289 290 287 284 289 286 284 284 286 289 290 288 286 284 286 286 287 286 286 287 286 286 287 285 286 286 285 284
307 307 307 307 308 308 309 308 307 305 303 297 294 293 294 293 292 292 286 284 287 291 287 287 283 280 283 281 286 285 284 284 286 284 288 287 285 287 286 287 287 285 286 284 286 289 288 288 290 292 291 286 288 287 288 294 289 289 287 286 287 289 286 289 285 281 280 283 285 288 288 287 285 283 284 284 283 282 284 283 285 284 282 284 284 282 283
307 307 307 307 307 308 309 308 307 304 302 294 291 291 293 294 296 292 288 285 290 285 285 284 284 283 284 287 286 285 285 286 285 280 286 290 291 290 289 287 287 284 285 286 288 290 290 291 292 293 296 296 294 293 293 293 290 286 285 286 285 287 286 284 284 280 279 283 284 285 286 284 281 281 283 284 285 286 286 287 288 288 287 283 281 282 288
307 307 307 307 308 308 309 308 307 305 299 294 290 291 291 292 291 289 286 287 285 284 283 283 283 288 287 288 287 287 285 285 285 282 281 288 291 292 290 288 287 285 284 290 294 293 294 293 294 295 298 297 295 293 293 293 290 290 287 285 284 286 285 283 286 279 280 283 284 285 282 275 276 286 290 287 284 285 283 284 286 288 287 285 287 287 289
307 307 307 307 308 308 308 308 307 305 300 294 293 293 294 294 290 285 282 284 284 283 284 284 285 285 286 288 287 286 285 285 286 287 284 284 288 290 289 288 287 284 289 294 293 293 294 296 295 297 295 295 294 292 291 289 290 290 288 288 283 284 283 284 285 281 279 283 281 277 274 276 286 291 291 290 290 289 287 287 288 288 289 288 287 288 289
307 307 307 307 307 308 308 308 307 306 303 293 292 293 294 296 292 287 285 284 283 283 284 286 286 287 287 286 286 285 286 286 286 287 286 286 287 289 290 290 288 290 294 293 291 293 291 287 286 285 288 289 290 289 291 288 289 289 288 289 286 281 282 285 282 281 281 280 279 273 274 284 288 289 290 292 291 290 288 286 289 291 290 289 287 288 289
307 307 307 307 307 308 308 308 307 306 305 299 293 293 293 294 290 287 284 281 284 285 287 286 285 286 286 285 285 286 284 285 285 285 284 287 287 288 290 292 293 294 293 291 287 287 283 278 277 278 283 280 280 282 286 286 288 288 288 288 287 284 283 282 280 283 277 278 277 277 284 284 285 284 285 287 285 286 285 280 285 290 291 290 287 288 290
307 307 307 307 307 308 308 308 306 306 305 303 293 294 294 294 290 289 287 285 284 284 284 283 284 284 284 285 286 283 280 280 282 282 286 288 289 290 292 295 295 294 294 292 285 282 282 278 276 272 274 274 269 274 281 284 286 287 286 287 285 283 283 282 277 276 278 278 275 273 276 276 279 284 289 291 291 291 291 287 284 290 292 293 290 288 289
307 307 307 307 307 308 308 308 307 306 305 302 293 293 293 296 293 292 287 283 283 283 285 287 289 285 285 284 286 285 281 279 280 280 281 283 286 290 293 293 294 294 291 286 281 279 277 280 274 272 270 273 279 279 277 282 283 287 285 285 286 283 283 281 279 277 277 277 273 272 274 277 282 285 288 290 292 292 292 286 280 288 290 291 291 289 291
307 307 307 307 307 308 308 308 307 306 305 303 292 294 296 297 295 291 287 286 286 286 289 290 289 287 283 282 284 284 282 282 284 281 278 282 286 288 290 293 293 293 289 283 282 278 278 276 276 273 276 281 277 276 279 279 279 280 284 282 282 280 279 280 279 276 277 277 274 272 275 277 284 288 289 291 293 292 287 276 277 287 290 292 292 291 292
307 307 307 307 307 307 308 308 307 307 305 304 294 292 293 295 294 293 289 285 283 286 287 291 289 285 283 281 283 284 285 282 281 283 282 283 284 284 288 290 291 293 291 283 279 277 274 273 276 273 275 282 283 279 274 280 277 278 278 278 277 277 279 281 279 278 278 279 276 275 275 282 286 287 290 292 294 290 278 274 281 290 291 293 293 293 293
307 307 307 307 307 307 308 308 307 306 306 303 293 294 294 294 295 293 290 289 288 286 290 293 293 289 287 289 287 287 287 287 285 282 280 279 286 288 289 289 291 286 289 279 280 279 277 278 280 277 274 277 279 279 281 277 275 280 282 280 278 280 283 283 282 280 279 280 276 273 275 283 288 290 291 293 288 278 277 286 292 292 291 293 293 293 294
307 307 307 307 307 307 308 308 308 307 306 305 298 293 294 295 296 295 292 289 291 290 292 292 291 289 290 289 285 285 284 284 283 283 279 281 285 287 284 283 286 285 282 281 278 281 276 279 280 280 275 274 277 282 276 276 281 280 282 283 281 283 282 280 280 281 281 279 277 275 273 282 291 290 288 292 283 284 290 291 292 293 292 292 293 294 294
307 307 307 306 307 307 308 308 308 307 306 305 301 295 296 297 298 299 298 295 292 288 289 294 293 291 290 289 290 291 288 286 281 284 282 284 286 282 277 278 283 285 284 280 279 280 278 277 280 279 281 278 282 282 278 274 276 283 285 284 284 285 280 280 281 284 279 279 277 277 283 288 292 290 284 288 291 292 292 291 289 292 292 292 293 294 295
307 307 307 307 307 308 308 308 308 308 307 305 302 295 293 294 296 301 301 298 291 289 291 291 293 292 294 295 294 293 294 293 291 291 288 282 282 287 285 285 285 285 287 282 281 281 282 282 281 278 279 280 280 279 280 273 274 281 284 282 277 281 281 282 280 284 282 281 281 286 289 290 292 291 291 292 293 293 292 291 291 290 292 294 293 294 296
307 307 307 307 307 308 308 308 308 308 307 305 302 296 295 295 296 300 297 294 293 293 294 292 291 293 295 297 299 299 298 298 296 292 291 287 283 283 287 286 287 289 290 287 285 282 284 280 280 283 281 280 280 279 280 280 277 278 282 286 285 287 287 285 285 284 284 286 290 290 289 290 290 289 290 290 291 292 291 291 290 291 292 294 293 295 296
307 306 306 306 307 307 308 308 308 307 307 306 303 297 295 295 297 297 296 292 288 286 286 288 287 285 287 291 295 296 297 296 297 296 294 293 284 282 285 289 291 288 288 289 286 288 283 282 284 284 282 281 284 279 279 277 276 280 281 280 281 284 286 287 285 284 282 279 284 286 289 290 290 290 290 290 291 291 291 291 291 292 293 294 295 296 296
306 306 306 306 307 308 308 308 308 307 306 305 303 303 300 296 296 295 291 287 284 283 284 286 286 292 294 295 296 293 295 297 298 297 296 295 291 286 288 292 292 291 290 290 287 285 280 283 285 283 281 285 287 281 283 281 280 283 278 278 282 285 289 284 282 283 281 281 287 289 290 290 290 288 288 288 290 291 291 292 292 293 294 294 295 296 297
306 306 306 306 307 307 308 308 308 307 306 305 303 300 297 297 299 296 294 294 294 292 286 283 286 292 292 295 294 294 296 297 296 296 296 296 296 292 291 293 293 291 289 288 289 285 282 280 278 279 281 283 290 283 281 285 285 285 284 282 284 287 290 281 284 284 282 284 285 286 287 286 287 288 288 289 290 290 291 292 292 292 292 293 295 297 297
306 306 306 306 307 307 307 307 307 307 306 306 303 301 299 299 298 296 292 293 289 284 282 282 285 288 294 293 296 295 297 295 295 295 295 296 295 294 293 292 290 287 289 288 284 280 281 279 281 283 283 283 285 285 283 287 285 283 281 284 286 287 284 284 283 279 279 280 284 286 283 282 287 288 289 290 291 290 290 291 291 292 292 293 294 295 297
306 306 307 307 307 307 307 307 307 306 306 305 304 302 301 299 298 298 296 296 290 284 284 283 286 291 293 289 293 293 295 296 295 295 294 295 294 293 292 291 289 290 288 288 287 286 282 283 284 281 281 283 286 283 286 286 285 284 283 284 287 287 285 284 282 282 282 286 287 288 287 286 288 289 290 290 290 290 290 290 291 291 293 294 294 294 296
306 306 306 307 307 307 307 307 307 306 306 304 302 300 300 301 300 299 299 298 295 293 289 288 290 285 282 289 293 292 294 294 294 294 293 294 294 293 292 292 291 287 286 283 281 279 279 281 279 284 288 287 288 283 284 281 278 278 280 284 287 289 288 290 289 286 288 290 291 289 287 286 288 290 290 290 290 289 290 291 291 292 293 294 294 295 295
306 306 306 307 307 307 307 307 307 306 305 302 299 294 290 294 298 298 299 300 298 297 288 285 282 279 285 290 290 291 293 295 293 293 292 292 292 292 292 292 290 290 288 286 285 285 281 282 279 283 288 293 289 281 280 279 278 280 283 285 289 289 290 292 291 291 288 289 289 289 289 289 289 289 290 290 292 291 290 291 291 292 292 294 294 295 297
306 306 307 307 307 307 307 307 306 306 304 300 297 289 288 287 294 299 301 301 300 295 286 285 283 285 285 288 289 289 291 294 290 291 291 292 293 292 293 293 290 292 288 286 287 284 280 282 279 286 289 292 285 281 281 280 278 279 285 287 289 289 290 291 291 293 293 293 291 290 289 289 289 289 289 289 291 290 289 291 293 295 295 294 294 295 296
306 306 307 307 307 307 307 307 306 305 302 299 296 293 293 294 297 299 302 301 299 292 285 283 282 282 280 284 289 292 292 293 293 291 290 292 291 292 292 294 290 292 289 283 284 285 284 281 285 285 288 291 292 284 281 281 279 281 286 289 289 289 289 290 290 291 292 292 291 290 288 287 287 289 288 290 290 290 289 290 291 291 293 293 294 295 296
306 306 306 306 306 307 307 306 306 304 300 303 306 305 304 304 304 304 303 295 292 286 286 283 282 281 278 283 289 291 293 292 290 290 290 290 291 290 289 290 290 291 300 289 285 284 282 279 281 286 287 290 286 281 283 280 284 285 287 290 288 289 290 291 291 291 291 291 289 288 286 287 288 288 288 289 289 289 290 290 291 291 292 292 293 293 294
306 306 306 306 306 307 306 306 305 304 303 300 297 298 301 304 304 304 298 293 289 286 281 283 282 280 280 286 286 292 293 287 286 287 286 290 291 288 285 287 288 286 287 288 283 285 285 285 284 281 287 286 283 283 282 285 287 287 289 290 290 289 289 289 289 290 291 291 289 289 288 288 289 289 288 288 290 291 291 290 290 291 291 291 292 292 293
306 306 306 306 307 307 305 304 301 300 296 297 297 299 301 305 304 305 302 295 288 284 283 285 285 282 281 278 274 283 292 291 289 288 284 287 292 288 287 284 286 285 285 289 284 281 281 286 286 285 283 282 283 282 282 287 290 288 288 289 289 289 291 292 291 289 290 290 290 290 289 289 289 289 288 288 289 289 289 290 290 289 291 291 291 292 292
305 305 306 306 306 304 303 302 300 297 295 294 296 303 305 306 305 302 300 299 295 286 282 282 282 280 278 276 277 284 291 289 287 287 286 285 290 288 283 281 283 285 288 286 281 281 282 287 288 282 279 281 282 285 288 288 289 289 289 291 289 291 292 292 292 291 290 289 290 291 291 290 289 290 288 287 288 288 288 288 290 289 289 290 291 291 292
305 306 306 305 303 299 295 293 299 297 295 297 301 305 304 303 302 302 299 297 298 298 289 285 283 281 280 276 277 282 288 283 282 282 288 286 284 280 284 284 282 283 286 284 280 280 286 288 283 280 280 280 282 285 289 290 289 289 288 289 291 290 289 290 290 291 291 291 289 290 290 290 289 288 287 288 288 288 288 289 288 288 288 289 290 291 291
305 305 302 298 296 288 290 291 296 299 305 304 304 296 294 294 288 288 291 289 291 295 289 290 284 284 283 282 281 286 287 281 282 283 281 280 284 287 280 284 282 285 281 279 283 290 285 285 283 280 278 283 286 285 287 288 290 291 289 288 288 289 291 289 290 291 291 289 290 289 289 288 290 288 289 290 288 288 288 288 288 288 288 289 290 290 291
303 301 299 297 292 288 288 294 303 305 302 301 297 290 287 286 286 287 287 288 287 286 288 288 285 287 283 281 284 289 286 284 278 278 281 283 284 282 282 283 284 283 278 277 281 291 284 279 277 278 280 282 284 288 289 289 289 290 291 290 290 289 290 290 292 292 291 290 291 291 291 291 290 290 289 289 289 288 288 288 289 289 289 289 289 290 291
300 296 291 292 289 291 301 303 306 301 296 289 288 287 285 288 285 282 282 284 285 285 288 284 289 286 287 285 283 281 286 284 280 281 280 280 286 283 282 280 281 281 277 275 277 283 282 277 273 277 278 278 284 286 287 289 291 291 291 291 290 290 289 291 292 292 292 291 291 291 290 291 291 292 292 291 290 290 290 290 289 288 288 289 289 290 289
297 296 294 290 296 299 300 301 300 296 290 288 287 285 283 282 285 283 283 280 279 280 285 284 285 285 285 285 283 283 288 287 283 283 282 283 285 283 280 280 282 280 275 274 277 281 277 276 274 275 278 279 284 287 288 289 290 290 290 290 289 289 290 290 292 291 292 292 292 292 292 292 292 292 293 293 291 289 289 289 289 289 289 290 290 289 290
299 299 299 301 301 301 299 295 290 289 289 289 285 284 284 283 281 282 281 280 278 275 281 284 282 282 283 286 286 285 284 287 283 280 282 282 284 282 278 277 278 276 274 275 279 276 277 277 273 272 277 281 283 285 288 291 289 290 291 290 290 291 291 292 292 292 292 293 293 291 291 290 290 291 292 293 292 290 289 292 293 292 290 289 289 289 290
304 303 302 297 293 291 289 289 289 288 285 285 281 281 279 279 280 279 276 279 280 282 283 289 286 287 288 290 286 286 283 287 288 283 282 280 281 280 278 276 275 276 276 276 276 273 274 273 271 278 281 283 285 287 289 291 291 290 291 290 289 289 291 292 292 293 292 291 291 291 291 291 291 292 292 292 292 292 292 292 292 291 290 290 290 289 290
301 299 294 289 289 289 290 285 289 287 285 284 283 280 277 276 277 278 278 278 279 283 283 286 285 285 282 285 286 285 287 287 285 281 283 280 281 278 277 277 275 277 280 277 274 277 275 270 277 279 280 283 288 287 289 289 289 289 290 292 291 291 291 291 291 292 292 289 290 290 290 290 290 291 292 292 292 293 293 294 292 291 291 293 293 291 290
292 289 289 288 286 288 288 283 290 286 283 283 282 278 277 275 275 279 279 282 284 286 285 284 284 285 286 285 285 284 283 284 284 282 280 281 280 276 277 277 274 275 277 274 272 271 273 275 278 280 282 284 289 290 289 289 289 292 293 291 292 292 291 292 292 290 290 289 290 290 289 289 289 289 291 292 293 294 294 294 294 294 295 294 292 291 291
288 288 287 286 284 287 286 285 285 282 283 281 281 282 281 282 280 280 284 286 285 284 286 286 285 286 285 284 285 284 280 280 282 281 279 278 277 276 277 278 278 279 273 272 272 273 277 280 280 283 287 289 290 291 290 290 290 291 292 293 293 291 290 289 290 289 289 289 289 289 289 288 288 288 288 289 289 291 293 294 294 295 295 293 291 290 290
289 289 287 288 285 286 286 283 283 285 284 282 283 285 286 286 284 284 288 288 289 288 288 287 287 288 286 284 285 284 281 280 282 281 279 280 277 278 279 279 276 272 272 271 269 267 273 278 279 282 284 288 289 289 289 289 289 290 292 292 291 291 289 289 288 289 289 288 289 289 288 288 287 287 288 289 289 289 291 294 295 295 294 293 291 289 288
288 289 289 286 285 286 284 285 286 286 286 285 283 285 288 287 288 288 289 289 290 290 289 288 287 286 287 287 287 283 281 279 281 281 280 280 280 276 273 274 273 271 272 273 275 276 278 279 281 284 285 288 291 291 289 289 289 290 291 291 291 291 289 289 288 288 289 289 289 288 288 287 287 286 287 288 288 289 291 292 293 293 292 290 289 287 287
289 289 288 286 287 285 284 284 285 287 287 287 287 286 287 287 288 291 292 290 290 290 291 290 286 286 286 285 282 282 283 283 281 281 281 279 278 274 273 272 271 273 274 277 279 279 280 282 283 284 285 287 289 291 291 291 292 292 292 292 293 292 291 290 290 290 289 288 288 288 287 287 286 286 285 286 287 288 289 290 292 291 289 288 287 286 286
290 288 288 286 285 286 283 284 285 285 285 286 286 285 287 288 290 292 293 290 288 289 289 287 286 287 286 285 282 280 279 281 282 280 277 275 274 273 273 272 270 273 271 276 278 279 281 282 282 285 287 288 289 290 291 291 290 292 292 293 292 290 290 290 289 289 289 288 288 289 287 285 285 284 286 288 288 287 287 289 289 288 288 287 287 286 286
289 288 287 289 289 286 286 284 284 282 283 286 286 287 288 289 291 292 293 293 291 287 286 286 286 285 284 281 278 277 279 280 280 277 276 276 274 274 274 276 276 277 280 281 281 282 283 283 284 286 287 288 290 290 291 292 292 293 293 292 292 290 289 289 290 289 288 288 287 285 287 286 286 286 285 285 286 286 286 286 286 286 287 286 286 286 286
287 286 286 286 287 286 287 286 286 286 285 285 287 289 291 291 292 294 295 293 290 288 287 285 285 283 281 281 281 280 280 280 278 276 277 277 276 277 273 275 280 280 281 281 283 284 284 285 285 287 288 290 291 291 291 291 292 292 292 292 291 290 289 288 288 288 288 288 287 287 288 286 285 285 284 285 285 285 286 286 286 284 285 285 285 285 285
Wind_Speed
16 16 16 16 16 17 18 19 17 17 17 6 6 2 3 4 1 4 2 4 3 6 3 1 3 0 1 3 0 1 0 1 1 0 1 0 1 1 0 1 1 2 1 0 0 0 1 2 1 2 2 3 4 5 5 3 4 1 2 1 1 1 1 2 4 5 5 2 3 7 4 4 5 5 4 4 4 1 2 2 2 1 2 1 1 2 6
15 16 16 16 16 17 18 19 17 15 13 5 5 2 2 1 1 5 2 3 4 6 1 2 3 2 3 2 1 2 1 0 2 1 1 0 1 0 0 2 2 1 0 1 0 1 1 1 1 2 0 3 5 4 5 3 1 1 1 1 3 2 1 2 3 3 4 2 1 4 2 6 3 1 2 2 2 2 0 2 1 0 4 4 2 7 3
15 15 15 16 16 16 17 18 16 14 12 4 0 2 1 0 1 1 7 7 6 3 3 2 1 1 1 1 4 5 1 1 1 0 1 0 1 1 1 1 1 0 0 1 0 2 1 2 2 2 1 3 2 6 2 3 1 2 3 7 1 1 2 1 2 2 1 2 1 3 4 3 2 1 2 3 3 4 2 0 2 1 1 2 2 8 9
14 14 15 15 15 16 15 15 15 14 12 6 1 1 2 3 1 5 5 6 5 3 1 3 1 1 1 3 1 1 2 3 3 2 2 2 0 1 1 1 1 0 2 2 1 1 0 2 2 1 2 3 2 3 4 5 2 6 3 1 1 1 0 1 2 2 3 4 4 1 1 1 1 0 4 3 2 2 2 1 2 2 2 6 8 11 19
13 13 14 14 13 14 14 15 16 14 12 3 3 2 2 1 3 1 3 5 6 2 3 2 2 0 1 1 0 3 2 2 3 1 0 1 0 0 0 0 2 1 2 1 2 1 2 2 1 3 2 3 3 5 5 2 3 7 2 3 2 1 1 3 4 6 7 7 9 2 3 3 3 3 1 4 2 2 3 2 1 2 4 7 2 4 9
12 13 13 13 13 14 15 15 16 16 14 1 1 2 3 2 1 1 1 1 2 3 2 5 3 2 0 0 0 1 2 3 2 4 0 0 0 0 1 1 0 1 1 1 1 2 2 0 2 3 2 2 4 4 4 2 4 5 1 2 1 1 1 1 2 3 5 6 6 7 4 0 1 3 3 4 6 5 2 2 4 2 3 7 8 10 15
10 12 12 12 13 14 14 14 16 17 16 1 1 2 2 3 0 0 1 0 2 2 2 2 1 1 1 1 2 1 0 1 1 1 4 3 1 1 1 4 4 0 1 1 1 1 4 3 2 0 3 2 3 3 3 1 3 4 3 3 0 1 2 3 2 8 6 6 5 3 3 2 3 5 3 4 5 6 6 7 7 6 9 10 12 14 18
10 11 12 12 12 13 13 14 16 17 17 2 5 3 0 2 1 1 3 2 0 2 1 0 3 4 3 1 1 0 0 2 3 2 2 1 1 0 0 5 8 2 3 3 1 2 1 3 4 1 2 6 0 0 0 3 3 4 2 1 1 2 2 8 4 4 3 3 2 1 2 4 7 4 3 3 3 4 6 7 7 8 9 10 12 14 17
9 10 10 11 11 12 12 14 16 17 13 4 4 1 2 0 1 1 1 1 2 1 2 2 2 1 4 3 1 1 0 0 0 3 2 2 1 0 3 5 6 0 1 2 4 4 4 5 7 8 2 1 2 1 2 1 3 5 4 2 3 3 2 3 2 4 3 2 3 2 3 7 7 8 8 7 9 11 8 7 5 6 10 11 11 12 11
9 9 9 9 9 11 11 12 14 16 9 5 2 2 1 1 0 1 1 0 1 2 1 1 1 1 1 0 1 0 2 1 1 2 2 1 3 1 2 3 0 4 3 5 3 3 5 7 7 6 4 4 2 0 1 0 0 2 2 0 2 3 3 4 5 3 2 4 3 2 5 5 3 11 8 5 5 5 8 8 7 7 7 9 7 9 9
8 8 8 8 9 10 10 10 10 13 6 4 3 0 1 2 1 2 2 0 2 2 2 2 2 0 0 3 1 1 2 3 1 1 2 2 1 1 0 1 0 4 3 1 0 3 7 5 3 2 2 3 2 1 1 2 0 1 1 1 1 2 3 1 2 2 4 7 7 1 2 5 3 5 4 3 6 12 14 14 14 14 2 6 7 13 15
8 8 7 7 7 9 8 7 8 8 6 0 3 3 2 2 2 2 1 1 1 1 0 2 1 1 0 0 1 1 1 4 3 1 3 2 5 3 2 1 1 4 2 1 3 3 1 0 2 2 6 5 3 2 6 3 4 1 2 0 1 3 1 2 1 3 3 6 5 4 3 2 3 4 5 5 7 8 11 16 15 12 7 7 10 12 14
8 8 7 6 6 7 7 6 6 6 5 2 2 3 1 1 1 2 3 2 1 2 1 1 0 2 3 2 2 3 5 5 4 5 3 3 4 2 1 0 1 4 4 7 3 1 2 2 2 2 2 6 3 5 4 7 4 5 2 0 1 4 2 2 3 1 1 2 5 2 0 1 3 6 6 6 6 8 11 14 8 1 3 4 8 14 18
8 7 6 5 5 6 7 4 4 2 3 3 2 1 1 1 1 2 1 1 3 2 2 2 1 2 1 2 2 5 3 4 4 1 1 3 4 4 4 1 3 3 4 1 3 3 2 3 1 2 3 5 2 2 2 3 1 4 5 4 1 2 2 2 2 2 4 2 3 1 1 0 3 5 7 6 10 10 9 6 14 10 6 1 13 19 20
8 7 5 4 4 6 6 2 3 2 2 2 2 1 1 0 1 4 1 3 2 1 2 1 1 2 1 2 1 2 3 4 5 1 2 1 2 4 2 4 4 5 0 1 1 4 1 2 2 2 3 4 0 1 2 2 3 3 3 2 3 3 5 1 2 3 2 2 3 3 2 2 4 4 7 3 5 4 3 2 13 2 3 8 17 18 20
8 6 5 3 4 6 6 1 0 1 1 3 2 1 0 0 2 4 3 2 2 2 1 6 2 2 1 2 0 1 2 1 2 2 4 1 3 7 4 3 4 2 3 5 2 3 2 2 3 4 0 0 2 0 1 3 3 4 4 6 5 4 4 3 6 2 4 4 2 0 1 1 2 9 8 8 8 4 2 2 9 2 10 17 14 18 19
8 7 5 4 4 5 4 3 2 2 2 0 0 0 1 0 0 2 3 2 2 4 1 3 3 2 1 3 2 0 1 1 1 1 2 3 3 3 9 6 2 3 3 4 6 3 4 5 3 1 1 1 0 0 1 2 3 5 7 6 6 5 4 6 6 4 3 1 2 2 1 1 6 8 7 9 10 2 1 7 6 8 19 17 17 19 21
8 7 6 5 5 5 5 2 3 3 4 2 1 1 0 1 1 3 3 3 1 4 3 4 3 1 1 2 0 1 0 1 2 0 1 3 2 3 4 4 7 3 2 3 1 4 2 2 2 1 1 1 0 2 2 0 1 2 3 2 2 4 4 3 3 1 3 2 2 2 2 3 3 5 11 7 11 1 7 8 15 19 18 18 16 19 19
8 7 6 5 5 5 4 4 4 3 5 4 3 2 1 1 0 3 4 3 3 1 2 1 0 2 1 1 0 0 0 0 1 0 4 3 0 1 1 3 0 3 7 2 4 2 2 0 0 1 1 2 2 0 0 1 1 1 0 4 4 1 1 2 0 2 2 2 1 3 3 4 2 5 8 6 7 7 14 10 11 15 17 17 16 18 19
8 7 6 6 6 6 5 5 5 5 6 5 2 1 1 1 2 1 2 2 1 3 3 4 3 6 3 3 2 0 1 1 0 1 1 0 3 4 1 2 2 1 3 2 2 1 2 0 0 1 1 1 1 2 1 1 0 1 0 1 0 3 3 3 3 2 0 0 3 2 3 2 5 9 4 2 7 5 8 13 12 11 14 15 16 14 17
9 8 7 7 7 6 5 5 5 6 6 6 3 1 1 1 0 0 0 4 1 2 5 1 1 5 3 3 4 3 3 4 3 1 4 3 2 2 2 1 2 1 1 1 2 1 1 0 0 0 1 2 1 1 1 1 4 2 2 1 1 0 2 1 1 1 2 3 5 3 4 8 5 6 3 6 3 6 9 9 14 12 12 12 13 16 16
9 8 8 7 6 6 5 5 5 6 8 7 4 2 2 1 1 1 0 2 2 5 5 2 4 3 7 5 5 5 6 6 8 1 0 3 1 0 1 1 1 1 1 2 2 1 1 0 0 1 0 1 1 0 1 2 0 2 0 1 2 2 1 3 1 2 1 2 2 7 6 5 5 1 4 5 8 7 9 8 10 12 11 11 11 15 17
9 9 9 7 6 5 5 5 5 5 9 8 3 1 2 0 1 0 1 1 3 3 2 2 2 3 3 6 9 9 9 7 4 2 3 2 3 0 1 0 1 1 0 1 1 4 2 3 0 1 0 2 2 1 1 1 1 1 1 1 1 0 1 1 1 2 3 3 9 4 5 5 7 5 3 4 6 8 6 8 10 10 11 10 11 14 16
9 10 8 8 7 6 6 5 4 6 11 10 4 2 1 1 1 1 3 3 2 5 4 1 2 1 1 1 1 1 2 2 7 6 3 3 1 1 1 1 1 1 1 0 2 2 3 2 1 1 0 2 3 1 1 1 1 1 0 2 1 2 0 0 1 1 2 1 3 3 6 6 7 6 7 5 5 5 6 7 8 10 13 14 14 13 14
10 10 9 8 7 6 5 5 5 7 11 10 4 2 2 1 0 1 1 0 2 2 0 6 3 4 1 2 3 2 5 4 3 6 6 5 5 2 1 0 2 0 0 2 1 4 2 1 0 1 0 3 3 2 1 1 3 1 1 3 1 2 2 0 1 0 1 3 5 7 7 7 7 5 4 6 7 7 7 7 8 9 11 11 12 13 14
11 10 8 8 7 6 5 4 5 8 11 10 6 3 1 2 0 2 2 2 2 2 0 3 3 1 3 3 1 1 2 4 4 6 8 9 6 4 2 0 1 3 4 2 1 1 2 2 1 1 1 2 0 1 2 5 1 0 2 5 4 1 1 1 1 1 5 5 5 5 7 4 5 5 4 5 7 7 9 10 9 9 11 14 16 13 13
10 9 8 8 7 6 5 5 5 8 11 10 4 2 2 0 0 2 2 4 2 1 1 3 5 7 4 7 4 2 1 3 4 4 4 4 4 2 1 1 2 2 2 2 3 3 2 2 1 1 3 2 1 2 1 1 1 1 2 4 1 1 2 1 2 2 3 2 4 1 4 6 8 5 6 7 8 6 9 9 9 11 13 13 16 18 15
9 8 8 7 6 6 5 5 5 9 10 8 4 2 1 1 1 3 1 1 0 1 2 4 5 7 3 3 4 2 2 3 5 5 5 4 4 3 4 3 2 0 0 0 1 0 1 0 3 2 0 2 0 2 0 0 1 1 2 5 4 2 4 3 1 4 4 6 5 1 2 5 8 6 6 7 6 6 9 11 10 11 12 13 13 14 17
9 9 8 7 6 6 6 6 7 10 11 7 3 2 1 2 2 2 1 1 2 2 2 4 4 2 1 1 3 4 3 4 5 5 4 4 5 4 4 5 4 3 2 2 2 2 2 3 2 2 1 3 2 2 1 2 1 3 5 4 3 4 5 6 6 4 5 6 6 3 2 3 5 6 6 6 5 5 9 9 8 8 11 12 13 12 12
9 9 8 7 7 6 6 6 10 12 11 5 2 2 1 1 0 2 4 2 1 1 1 3 4 2 2 2 3 2 2 1 3 4 5 4 4 5 6 5 2 1 2 1 1 2 3 1 2 2 2 0 1 1 0 1 1 6 4 3 6 2 2 4 3 5 4 1 2 2 4 6 5 5 6 5 5 5 6 10 10 10 11 10 11 12 12
9 9 8 7 6 6 6 9 12 13 10 2 1 1 1 0 0 0 4 3 2 2 1 1 5 5 6 2 1 2 1 0 3 4 4 5 4 3 2 3 0 3 1 0 0 2 1 2 0 1 0 1 4 2 2 2 2 3 4 5 5 5 4 5 4 6 6 6 4 3 2 4 3 4 4 4 7 6 5 7 10 9 10 10 11 10 11
9 9 8 7 6 7 7 12 14 12 5 4 2 1 1 0 2 4 2 4 4 1 1 3 3 3 2 6 2 2 1 2 2 1 1 2 2 1 2 4 3 1 3 2 1 1 3 3 2 2 0 2 2 1 2 2 2 6 2 4 4 4 3 3 2 4 4 5 1 1 1 3 2 1 4 5 6 5 5 7 8 8 9 8 9 10 11
9 9 8 6 6 7 10 13 12 7 3 1 3 2 3 4 5 5 4 3 2 1 2 2 0 1 1 3 5 2 2 2 1 1 1 1 3 2 2 1 2 1 2 2 1 2 2 2 0 1 2 0 1 1 2 4 8 6 5 6 3 3 3 3 2 2 4 4 4 2 2 3 3 3 4 5 5 4 6 6 7 7 7 9 11 12 13
9 8 7 7 6 9 12 13 10 6 5 2 1 1 1 5 5 6 3 3 2 0 2 1 1 2 5 5 1 0 1 2 2 1 1 1 2 4 2 1 0 2 2 5 3 0 1 0 3 2 1 1 1 1 2 7 6 5 4 4 4 3 2 2 2 1 4 4 3 4 4 4 3 3 3 3 5 6 5 4 5 8 8 9 10 10 10
9 8 8 8 9 12 14 11 5 1 1 1 2 2 1 4 6 8 4 2 1 1 2 1 1 1 3 3 1 2 0 1 1 2 3 1 0 2 1 2 1 1 3 2 1 2 2 4 5 2 4 0 1 2 4 7 8 4 4 4 2 1 0 1 3 3 2 1 1 2 2 2 2 1 2 4 4 4 5 6 5 5 8 8 9 9 9
10 10 10 12 16 12 6 3 2 2 0 1 1 2 5 6 7 5 2 2 1 3 1 0 1 2 2 1 0 1 1 0 1 0 0 1 1 1 3 4 1 5 1 2 4 0 2 2 2 3 0 1 5 6 9 7 6 5 4 5 4 4 3 3 3 4 3 2 2 3 2 2 1 1 2 3 3 4 4 4 6 6 5 6 8 7 8
12 14 17 15 6 2 2 1 0 1 2 2 4 6 8 7 3 2 2 2 1 1 2 2 1 4 5 3 1 6 1 2 2 2 0 1 3 0 1 1 2 1 1 1 0 2 6 0 1 1 2 4 7 7 8 6 6 5 4 5 5 4 3 3 3 0 4 6 4 3 1 0 0 0 1 2 3 3 3 4 4 4 4 5 6 7 7
17 15 8 3 3 2 0 1 2 3 6 8 7 2 4 4 1 2 1 0 1 1 0 1 4 2 0 1 3 3 0 2 2 0 1 1 2 0 0 1 2 2 3 3 5 5 3 1 2 3 5 7 6 6 6 5 7 5 4 4 3 4 4 4 3 2 0 3 4 3 2 1 1 1 0 1 2 3 3 3 3 3 3 3 4 4 5
14 4 2 1 2 2 2 1 2 8 6 1 0 1 1 1 1 0 0 0 1 1 1 3 4 4 4 2 6 4 1 1 2 2 1 1 1 1 0 1 1 1 2 2 2 2 1 1 0 0 5 4 3 6 4 6 4 4 5 4 3 4 4 4 5 4 4 4 5 4 3 3 3 3 2 2 2 3 3 3 2 3 3 3 4 4 5
4 3 3 3 1 1 1 1 5 4 1 1 2 1 0 0 1 1 0 1 2 1 1 4 2 4 6 8 4 4 1 3 1 1 0 2 0 0 0 1 1 1 2 1 4 1 2 2 1 1 5 4 7 5 2 4 5 5 5 5 4 4 4 4 5 5 4 5 4 5 4 4 4 5 4 3 3 2 1 1 1 2 3 2 2 4 4
1 3 3 2 3 3 2 3 1 1 1 1 0 1 1 0 1 1 1 1 2 3 2 3 1 1 2 1 2 5 4 1 0 2 1 1 2 2 1 0 0 1 1 1 3 1 1 0 0 3 6 4 5 3 3 2 4 4 4 4 4 3 3 3 3 2 3 4 4 4 4 4 4 4 4 4 4 4 3 2 2 2 3 3 3 3 4
4 3 4 6 4 3 2 2 1 1 1 0 1 1 0 1 1 1 1 1 3 1 2 3 1 3 5 9 6 3 3 1 1 1 1 1 0 1 1 0 1 1 2 3 1 2 1 1 1 3 6 8 7 4 3 4 4 4 4 4 4 4 3 3 4 2 2 3 3 3 3 3 4 4 4 4 5 4 3 1 1 1 1 2 2 3 4
14 11 6 5 2 1 0 1 0 1 1 0 1 1 1 0 2 3 2 2 1 1 1 0 1 1 0 2 1 3 2 1 1 0 0 1 0 1 1 0 1 0 3 1 1 1 0 2 2 8 7 7 4 4 5 5 4 4 5 4 3 2 3 3 3 4 2 2 3 3 2 3 3 2 2 4 3 1 0 0 0 2 3 2 2 3 4
3 3 3 1 2 0 0 1 0 1 0 0 3 3 1 1 3 0 0 4 2 2 3 4 3 5 1 3 2 0 0 1 1 0 0 0 1 0 0 1 3 3 0 0 0 1 4 3 7 6 4 4 3 4 4 4 4 4 3 1 0 1 1 1 0 0 0 1 0 0 0 1 2 2 2 2 2 3 2 1 1 0 1 1 3 4 3
3 2 2 1 1 1 1 1 0 1 4 4 3 3 4 4 3 6 5 2 2 1 1 1 3 1 0 1 0 1 1 1 1 1 1 0 0 0 1 2 2 1 0 2 1 2 2 3 5 4 5 5 6 5 5 4 4 6 5 1 1 1 1 2 2 1 1 0 1 1 3 2 3 3 3 2 1 2 4 3 2 2 1 3 3 3 4
2 4 3 3 2 1 2 1 2 3 3 3 5 7 6 6 5 4 5 1 2 2 2 3 1 1 2 2 3 1 0 2 1 1 1 1 1 2 3 0 1 1 1 0 0 3 6 7 6 7 7 7 6 6 5 5 4 1 3 5 5 4 4 4 4 3 2 2 2 3 4 3 4 4 3 2 2 2 2 1 1 2 3 3 3 3 3
3 1 1 1 1 2 1 4 6 6 6 5 6 7 7 6 6 2 1 2 2 3 1 1 3 4 1 1 1 2 1 0 1 1 1 1 2 1 1 0 2 1 1 2 3 4 6 7 7 7 6 5 5 5 5 4 3 4 6 5 5 5 4 4 3 4 3 2 3 3 3 4 4 3 4 4 3 2 2 1 1 1 2 4 1 2 2
3 1 2 2 4 3 7 6 2 1 2 3 3 5 4 1 0 4 4 4 4 2 0 0 0 0 1 2 0 2 1 0 0 2 1 1 1 1 0 0 1 1 2 2 5 6 6 5 5 6 6 6 6 7 5 5 5 6 6 5 6 5 4 4 4 4 4 5 5 4 3 2 3 3 3 4 4 2 2 3 3 1 2 3 3 2 3
3 3 3 3 2 3 3 1 3 4 3 3 3 3 4 4 5 5 2 2 2 3 4 3 2 2 1 0 2 1 1 1 1 2 1 0 1 3 2 2 1 2 5 6 6 6 6 6 5 4 4 4 6 7 7 7 8 8 8 8 7 7 6 6 6 6 5 4 4 4 4 2 2 3 3 3 4 2 1 1 2 2 2 4 4 3 3
2 0 1 1 1 2 1 1 2 4 2 1 3 4 5 5 5 5 3 2 2 2 2 3 1 1 1 1 0 0 1 1 2 0 1 2 2 1 1 2 4 5 3 4 5 6 7 6 4 5 5 5 6 7 7 7 7 8 7 7 5 5 5 6 5 5 5 5 5 5 5 4 3 3 5 6 5 4 3 3 3 4 4 3 4 4 3
1 0 3 3 6 5 7 5 8 5 4 6 6 6 6 7 6 3 2 4 3 2 1 2 2 2 1 1 1 0 3 1 2 3 4 4 2 3 4 5 6 7 8 6 6 5 6 5 4 6 5 5 7 8 9 8 8 8 7 6 5 4 4 4 5 6 5 5 4 5 5 5 6 5 3 3 4 4 3 3 2 3 3 3 3 4 4
2 2 5 4 4 4 4 1 1 4 5 5 6 5 6 5 4 3 2 5 3 2 3 1 2 1 1 3 4 2 0 1 1 1 0 3 3 3 4 7 7 6 7 5 5 5 5 5 5 6 6 7 8 9 8 5 5 5 5 6 5 5 5 5 5 6 5 5 5 6 6 5 4 3 3 4 3 3 4 5 4 4 4 4 4 4 4
Wind_Direction
320 326 332 332 334 335 338 345 348 346 350 359 354 337 16 47 207 263 7 340 87 64 62 295 32 44 244 286 306 292 354 151 265 59 350 14 106 19 39 194 84 249 181 311 270 214 295 191 216 260 236 276 224 247 308 333 319 114 305 17 296 98 44 327 279 308 300 322 21 65 72 90 46 36 43 51 29 63 157 182 200 165 293 327 337 251 248
319 325 330 331 334 335 338 345 346 347 6 339 306 53 102 191 272 323 299 21 92 78 121 352 317 293 322 28 299 309 207 99 6 355 287 130 350 172 227 340 169 278 76 130 258 199 6 173 240 309 282 278 260 285 297 295 295 110 247 119 272 25 297 110 342 342 333 337 330 26 343 53 67 12 9 62 59 28 330 88 84 356 243 176 132 255 258
318 325 328 329 333 332 337 341 340 347 349 347 200 38 245 266 290 245 304 349 54 111 187 147 188 290 352 356 27 348 354 214 247 186 277 90 172 85 277 207 178 262 18 254 235 242 176 305 231 201 227 257 306 303 265 275 234 220 266 306 104 79 225 35 326 306 295 313 296 295 323 328 333 294 41 28 60 25 26 30 48 66 290 139 211 260 265
319 324 326 328 331 332 332 333 336 342 348 342 85 210 44 30 65 309 344 8 27 63 32 94 134 116 21 49 315 102 347 326 335 149 273 182 193 167 226 7 121 53 22 352 352 330 313 174 286 16 295 289 301 246 340 9 329 329 360 135 90 143 349 165 200 213 256 260 280 136 125 306 304 16 50 355 53 22 18 125 147 226 307 271 253 270 291
318 323 325 328 329 329 331 332 334 337 345 331 134 28 99 158 71 4 336 342 38 81 27 39 43 206 153 98 229 20 335 263 324 131 30 349 80 317 94 326 41 310 46 313 325 268 326 315 317 246 230 256 268 310 322 1 36 338 357 33 88 70 325 247 214 242 243 261 277 256 191 254 300 348 13 333 15 45 48 116 270 110 318 280 239 263 282
317 322 324 328 331 330 331 334 334 334 344 287 178 33 11 57 250 105 203 120 279 30 327 35 341 315 100 155 106 106 7 10 15 322 36 349 29 67 332 55 325 196 217 128 305 320 317 34 250 315 236 310 319 4 12 31 342 12 357 358 93 152 213 267 180 264 267 265 275 298 289 156 39 35 340 337 337 356 35 221 232 209 223 258 286 293 287
315 320 323 330 335 333 332 338 336 333 340 26 100 97 324 118 232 147 331 139 257 177 280 338 57 19 143 90 64 18 86 341 242 195 316 15 328 71 323 302 316 242 237 123 271 252 14 324 268 204 320 32 338 3 337 242 37 18 13 360 65 66 260 262 264 300 299 287 279 286 310 73 81 56 12 338 343 314 289 264 260 235 250 266 279 283 278
314 316 324 333 335 333 333 344 340 335 338 21 67 60 65 357 67 308 355 89 126 277 357 61 58 54 328 78 331 127 241 318 331 339 159 314 316 351 211 289 305 305 207 167 274 259 217 237 282 260 27 333 77 283 206 291 321 32 3 21 318 68 335 357 327 313 309 302 267 134 109 122 107 68 40 344 313 269 265 273 268 268 261 256 263 276 280
308 311 323 332 332 335 338 347 345 338 344 49 68 48 75 208 160 150 92 23 298 327 19 43 83 54 346 72 288 60 275 299 51 263 225 183 244 254 296 287 305 29 152 171 241 260 245 239 220 255 228 202 232 105 305 106 319 343 344 37 322 23 302 323 321 334 309 320 22 135 155 149 110 44 16 1 355 355 342 318 302 294 284 287 286 282 275
300 309 320 327 330 333 340 351 351 344 358 111 100 49 296 101 252 83 110 123 324 17 330 41 65 30 229 137 265 150 261 273 56 331 286 242 233 220 286 288 189 312 12 313 286 281 261 262 255 242 221 229 232 199 188 153 339 303 320 22 24 360 325 348 354 327 264 302 338 357 129 155 17 14 328 311 296 290 289 268 256 255 272 292 290 277 285
294 305 317 322 327 329 338 357 359 356 8 86 99 34 15 103 332 6 36 83 330 44 36 344 105 211 187 357 311 337 286 332 353 142 286 1 317 196 182 164 165 274 247 270 190 243 265 259 251 115 100 94 93 63 85 37 144 189 233 21 359 11 47 345 324 333 294 314 334 102 101 64 44 261 249 215 310 321 314 310 308 301 251 243 257 276 288
289 300 309 316 323 326 336 360 3 13 46 147 117 129 203 119 83 87 93 84 268 4 149 224 179 293 65 304 100 240 284 301 294 170 236 274 273 309 103 57 111 328 243 162 330 318 181 53 40 62 57 40 55 29 59 33 338 1 147 52 297 20 22 354 2 322 309 324 343 70 41 102 238 249 249 234 250 275 284 288 286 282 279 265 271 276 289
282 289 299 311 316 321 334 354 5 3 42 78 95 118 242 163 128 130 130 117 210 214 309 270 318 256 256 307 330 257 238 272 278 256 238 237 294 327 242 197 207 243 335 343 11 67 99 82 15 65 341 359 1 12 22 3 346 359 16 90 30 356 31 323 345 264 277 1 6 72 215 181 229 268 261 255 243 252 308 313 303 182 289 284 292 298 298
274 282 293 305 314 321 327 351 4 358 12 49 71 121 170 143 92 61 86 90 298 221 241 310 322 295 309 269 216 273 329 312 293 163 252 211 215 258 291 212 227 288 328 74 62 88 65 35 36 23 341 5 4 20 300 310 59 46 9 2 77 105 117 54 323 3 24 328 300 265 179 94 342 355 351 354 346 335 334 313 298 318 305 265 315 312 310
268 277 283 293 316 305 326 18 37 308 344 76 99 71 75 47 112 129 192 94 241 287 189 171 223 227 208 276 185 348 346 291 0 278 260 327 258 223 219 270 301 324 305 136 33 46 137 104 27 39 336 40 40 270 313 27 318 92 66 30 63 64 61 299 84 343 86 349 338 358 9 25 324 312 308 330 294 271 226 254 287 321 197 330 324 311 307
264 265 264 259 282 292 316 281 182 234 281 65 76 90 300 182 107 92 113 136 132 355 269 210 161 145 184 252 160 198 266 316 285 304 333 328 263 320 297 276 306 26 54 68 85 92 46 92 192 93 101 220 231 41 326 339 348 313 34 23 35 12 85 81 86 15 18 21 68 253 115 83 244 320 331 324 314 300 168 222 282 230 330 328 320 311 311
253 254 246 243 251 284 300 286 206 211 203 145 58 85 99 190 162 131 101 43 84 222 255 168 129 107 59 337 36 341 198 267 310 5 343 322 296 275 296 327 307 47 42 80 11 59 34 51 100 137 278 186 49 211 308 38 338 319 333 13 24 11 353 11 30 26 27 347 33 332 191 345 340 331 323 325 312 118 224 300 292 336 329 325 324 316 318
243 240 238 236 245 259 298 263 222 207 192 149 120 120 171 304 165 98 64 108 125 281 256 195 104 98 190 191 181 255 103 20 24 31 208 260 324 344 326 354 348 318 85 87 22 68 64 73 68 90 113 266 149 82 28 211 341 319 316 331 334 353 335 26 27 40 320 17 300 289 317 278 281 328 331 331 320 24 357 9 308 322 320 320 321 315 315
239 232 222 232 242 261 277 268 201 202 199 141 93 59 346 267 329 88 115 97 91 252 273 260 305 186 222 139 157 170 204 182 124 82 305 9 112 244 260 264 36 342 5 118 62 78 102 292 18 118 122 314 25 185 212 20 254 280 311 11 346 339 242 271 123 25 347 333 305 262 239 238 281 344 332 328 330 18 339 300 300 305 313 312 317 313 315
232 223 214 221 235 253 260 256 229 207 196 182 137 168 228 258 251 150 115 139 142 264 254 221 164 218 210 174 179 261 334 8 84 149 156 221 284 6 35 11 319 66 354 54 52 198 95 131 160 80 37 211 276 186 69 269 187 208 18 215 144 334 341 344 342 323 252 20 337 343 23 286 350 355 345 26 22 310 276 297 301 306 305 313 313 313 309
222 215 213 216 234 245 252 250 233 198 189 195 152 114 73 322 25 312 118 128 143 291 302 297 175 222 187 208 200 170 159 210 179 192 234 215 240 82 99 201 264 34 316 93 110 337 137 312 235 183 206 136 280 32 224 293 325 276 173 213 220 98 61 321 293 231 301 16 15 18 255 281 334 27 328 312 261 272 292 303 308 315 316 315 317 314 315
215 210 207 218 229 243 249 244 231 208 183 183 145 82 104 274 332 355 317 106 134 191 224 224 185 209 223 221 207 186 203 223 217 158 123 300 319 112 194 121 181 141 211 121 39 44 9 172 43 52 3 312 12 110 147 52 9 271 354 76 13 240 139 176 346 268 87 307 224 245 272 294 296 269 232 263 285 295 293 292 291 308 314 315 310 311 315
212 211 212 219 225 231 232 234 218 190 178 180 150 127 169 193 349 358 95 229 295 294 308 314 339 285 259 252 236 224 228 224 233 202 167 140 314 327 170 91 341 212 121 120 154 148 176 125 149 158 90 208 173 326 329 157 267 331 41 239 194 270 176 87 104 262 274 240 231 273 313 303 302 293 242 268 295 296 296 306 313 310 307 314 315 314 313
208 209 213 217 225 233 231 229 214 185 176 187 167 131 170 191 235 48 50 66 84 297 328 354 359 341 230 340 12 152 183 230 212 212 169 160 166 308 328 241 173 51 23 212 181 133 188 115 195 154 118 241 100 63 111 324 258 202 11 325 313 268 193 66 240 288 36 294 304 320 292 308 298 288 299 301 282 282 301 308 306 305 313 320 323 318 314
206 209 209 215 222 231 226 215 205 182 175 179 136 48 82 59 329 104 110 31 329 71 309 310 285 225 253 252 285 263 224 192 146 171 185 198 184 146 117 298 184 79 292 204 113 54 42 103 256 98 98 265 116 286 239 103 310 153 319 270 359 336 182 66 235 167 173 247 278 288 285 269 271 264 285 304 304 304 309 305 299 297 305 313 317 321 327
207 203 203 211 219 222 224 217 206 183 173 175 159 142 141 172 170 75 93 80 113 94 15 295 276 313 309 354 262 223 159 147 167 171 191 200 201 169 152 115 25 35 96 91 93 97 122 59 96 127 124 295 109 179 218 208 193 145 184 229 197 184 93 239 182 240 276 303 304 297 313 328 310 305 289 288 301 312 315 319 319 319 325 327 331 339 339
203 196 199 205 210 212 216 216 202 176 170 169 153 115 116 18 208 143 148 169 108 347 47 256 278 295 356 316 279 342 230 162 154 173 187 195 186 188 232 6 14 4 51 36 34 122 71 94 115 232 184 228 171 202 162 287 175 213 237 269 257 113 241 236 54 1 325 224 264 354 10 314 308 312 315 318 311 324 316 320 331 336 336 339 338 335 339
192 193 198 203 203 206 213 200 185 163 163 149 137 115 89 131 230 222 188 132 137 181 242 275 296 290 301 272 270 246 236 167 161 171 178 181 169 159 176 188 127 103 349 96 318 41 70 53 263 230 249 291 79 288 302 232 83 328 252 257 193 173 219 143 188 175 241 252 249 201 230 255 258 265 306 308 312 332 330 330 333 334 334 338 342 339 337
188 189 198 204 207 211 201 190 168 155 148 137 110 71 348 223 238 226 222 124 92 102 234 258 293 343 84 293 336 316 278 168 180 174 166 165 169 171 179 177 169 147 97 74 100 107 154 226 169 162 224 211 125 272 28 249 145 233 239 224 185 229 164 169 200 188 254 252 266 225 192 239 277 295 298 296 313 341 327 321 327 332 334 340 340 341 339
183 190 198 203 205 198 186 174 158 149 141 125 106 66 59 325 299 231 215 166 157 108 52 3 347 257 304 328 300 293 331 90 143 153 159 162 172 182 184 153 147 137 113 168 165 282 232 217 274 279 285 287 198 189 70 190 175 250 258 238 235 272 226 230 184 170 226 210 199 217 215 249 256 267 275 279 324 357 329 323 329 335 337 342 342 341 340
184 194 197 198 194 182 175 162 154 149 147 129 116 70 73 345 250 184 169 187 162 112 134 133 240 303 330 269 261 285 264 28 125 152 179 180 181 163 160 103 90 150 189 313 326 231 135 276 171 281 314 185 119 133 193 149 261 305 268 216 213 199 202 230 219 219 243 277 281 257 271 255 285 341 337 333 330 338 331 320 328 336 335 344 346 342 342
185 191 194 187 181 174 166 157 158 156 152 148 146 162 181 193 165 178 159 137 118 70 65 347 326 354 311 305 279 233 169 200 125 104 90 130 135 121 118 172 199 186 149 156 202 81 236 220 153 251 141 216 127 117 105 137 215 246 252 248 241 231 226 236 250 265 249 243 265 330 344 318 333 117 262 287 309 315 334 321 322 334 335 342 341 352 351
186 187 182 177 169 166 160 158 155 149 156 217 205 193 232 210 153 148 123 107 61 101 118 85 287 314 323 256 313 314 175 78 36 73 200 219 156 125 128 27 99 66 229 110 255 215 207 141 202 356 252 335 163 162 159 211 225 230 213 209 234 231 240 267 246 226 244 253 191 170 215 224 262 262 256 282 287 320 335 328 323 333 352 359 360 355 355
181 174 162 158 155 152 149 143 124 94 52 29 324 301 256 222 198 168 119 88 98 116 76 109 342 345 264 308 48 153 130 141 214 148 179 293 164 86 173 83 22 140 254 173 256 39 308 98 208 216 338 257 72 93 268 255 238 241 254 259 262 265 256 291 303 285 236 240 238 221 221 234 269 297 323 342 340 330 332 329 345 355 359 4 0 356 350
166 151 145 142 147 134 123 120 103 61 134 215 272 250 239 194 166 161 148 115 87 350 20 7 77 1 329 354 47 280 265 139 208 195 160 255 83 147 171 80 356 156 276 87 48 190 182 229 168 116 233 306 93 226 241 257 273 242 241 267 254 176 58 325 279 247 249 254 275 279 279 281 236 326 313 321 322 318 338 333 346 359 6 2 356 352 354
145 139 138 130 121 118 105 63 66 126 8 225 232 59 88 100 101 96 87 81 105 147 98 237 66 211 159 178 258 268 316 106 342 8 169 122 73 27 104 119 126 248 178 143 212 23 199 233 126 258 323 118 223 199 231 212 236 257 212 207 214 162 195 188 226 276 291 337 312 295 269 230 137 228 286 294 298 326 333 333 344 354 3 3 357 348 352
135 130 123 119 114 51 73 166 208 170 212 194 164 131 106 105 83 70 34 32 40 104 152 150 173 233 178 214 271 275 5 234 338 63 5 140 198 285 74 71 216 310 88 302 344 196 250 66 96 150 191 194 242 228 229 213 206 215 217 217 209 202 223 249 221 190 324 323 331 285 290 3 313 334 13 331 318 319 352 354 323 328 348 352 349 356 347
134 132 121 107 74 79 48 239 204 206 136 128 150 100 353 22 72 358 20 38 276 96 8 140 237 240 35 99 255 255 80 259 39 169 293 244 105 206 40 145 230 139 245 226 241 183 108 102 212 186 262 247 257 254 240 220 230 228 214 192 189 194 196 192 134 116 240 316 328 321 344 360 323 282 182 298 305 314 289 272 288 287 307 339 344 339 344
137 129 76 104 105 154 196 217 148 130 106 78 40 75 341 350 74 47 190 206 13 270 208 194 239 158 154 198 269 289 155 92 4 24 140 261 143 289 48 175 280 54 296 12 289 171 259 311 332 25 265 286 313 260 222 209 221 216 220 221 192 192 182 175 173 165 179 202 221 221 211 238 243 272 236 247 278 265 253 270 295 319 312 320 342 344 359
142 133 146 125 143 176 100 109 148 126 66 66 329 106 127 310 92 244 355 126 246 240 162 235 205 187 196 203 199 300 228 122 154 312 214 300 187 153 250 102 259 103 249 171 250 20 132 254 282 60 283 269 245 255 224 191 191 227 211 231 221 225 191 174 197 218 203 227 223 239 236 232 217 221 243 243 238 269 298 314 298 292 305 322 336 9 354
158 98 105 132 159 122 141 128 63 47 85 59 12 13 76 358 244 176 118 298 235 233 193 171 110 290 257 219 182 231 289 75 172 136 130 242 247 90 69 220 219 172 256 252 276 71 73 65 339 187 239 234 231 256 206 182 211 242 225 216 217 215 197 214 240 212 190 235 259 262 257 241 231 230 228 225 220 219 234 247 279 288 310 352 1 328 301
183 164 140 102 94 102 89 30 63 83 34 82 126 263 182 230 5 347 174 178 247 216 275 155 235 207 232 183 198 187 277 206 129 105 112 307 301 133 210 314 3 110 248 236 131 59 81 235 270 282 253 252 249 254 207 201 230 220 239 221 222 220 211 215 245 274 202 221 243 239 250 247 242 231 216 210 216 219 233 252 299 303 297 308 304 329 343
108 105 95 107 66 32 115 105 265 117 143 169 45 319 355 153 208 182 251 264 285 134 258 194 237 171 258 117 288 214 199 218 190 249 82 236 289 50 94 17 54 258 239 323 68 64 8 236 241 248 253 263 253 218 213 206 205 204 223 222 213 216 202 216 229 262 262 216 240 246 220 216 223 233 201 181 177 139 309 34 282 305 311 315 358 359 352
75 52 70 19 91 282 141 156 204 78 18 163 157 212 188 316 296 79 290 259 221 234 210 156 210 145 257 239 154 204 317 312 74 77 339 340 98 220 66 219 220 243 34 41 60 191 225 223 217 229 253 276 266 235 224 227 227 221 251 254 118 136 162 186 157 255 287 354 8 28 86 112 103 78 94 103 135 145 132 70 40 320 289 351 33 10 352
106 49 71 63 65 246 107 273 170 187 215 203 179 212 171 187 227 173 193 234 126 199 158 110 119 127 262 267 44 282 126 166 329 111 238 141 49 6 123 255 253 26 90 245 322 311 343 274 272 268 266 256 239 223 219 221 201 190 187 182 204 205 165 180 195 201 247 250 170 136 121 125 104 90 85 97 143 164 142 150 176 137 119 71 33 18 2
110 155 133 114 141 243 206 167 142 224 258 163 201 198 185 229 159 208 243 160 126 114 134 186 151 104 235 254 146 216 16 108 112 229 169 71 103 246 239 208 88 332 339 38 298 236 227 242 262 262 240 226 218 216 212 221 216 190 137 179 216 214 218 199 202 205 213 182 170 146 152 150 140 121 105 102 98 93 101 127 215 170 131 86 48 6 337
73 33 85 106 139 220 134 194 208 209 180 200 215 187 199 198 202 196 198 159 181 190 144 179 172 182 192 229 151 335 51 67 160 252 84 127 200 253 8 115 259 175 167 248 244 254 264 254 244 249 250 232 225 227 219 218 191 188 205 201 186 207 206 198 194 190 209 167 150 154 163 158 154 145 133 103 78 78 98 127 156 259 138 122 104 23 16
130 190 115 184 213 164 196 231 165 237 226 181 209 195 212 149 223 268 237 193 183 134 144 107 344 336 290 286 113 192 212 305 148 268 175 192 41 43 15 335 264 251 194 178 230 224 234 250 246 257 242 217 204 204 214 207 198 200 207 204 203 202 195 187 194 203 169 167 177 177 181 178 148 140 142 141 122 98 124 157 169 173 116 91 72 63 45
137 145 168 215 199 176 222 247 139 231 242 228 179 138 140 143 219 240 248 135 143 216 195 145 199 132 257 162 131 104 238 212 149 229 67 50 165 214 164 227 196 272 256 189 224 223 222 238 247 266 259 220 217 207 210 202 193 196 201 201 203 201 188 188 195 192 186 182 178 162 179 193 163 139 120 107 112 136 161 180 180 160 145 140 139 119 89
111 314 11 148 30 283 190 95 115 251 286 254 157 202 191 197 233 252 176 179 211 118 77 50 84 131 242 149 226 357 250 230 185 59 79 206 206 186 82 265 227 197 251 233 224 243 245 255 278 287 250 222 221 211 212 212 201 202 205 205 202 182 185 187 192 189 182 182 186 180 167 151 168 169 160 166 175 169 165 178 187 167 171 178 153 141 141
328 149 238 195 188 201 142 182 187 209 222 218 204 213 180 208 194 220 207 154 131 84 76 177 187 140 168 46 74 187 244 176 112 192 168 202 186 137 188 219 236 214 231 235 219 241 258 259 239 267 268 241 227 222 215 205 197 203 198 196 198 190 190 188 185 179 185 198 195 153 160 187 195 190 193 151 141 148 175 215 213 193 182 191 191 167 167
124 206 234 234 199 177 187 78 85 199 199 200 199 219 160 207 190 193 174 109 100 130 215 174 125 127 109 200 215 200 4 45 227 72 214 261 160 163 214 200 227 224 220 240 266 249 241 245 229 237 246 246 235 226 214 205 204 199 192 197 191 184 188 191 190 187 183 185 194 193 191 187 172 158 130 127 136 155 177 210 232 230 218 205 210 211 200